| time (UTC) | temp F | wind direction | speed MPH | gust MPH | rain 1hr in | rain 24hr in | rain mn in | humidity % | barometer mb |
| 20260507043313 | 43 | 0 | 0.0 | 0.0 | 0.00 | 0.09 | 0.01 | 94 | 1010.5 |
| 20260507040313 | 43 | 0 | 0.0 | 0.0 | 0.00 | 0.09 | 0.01 | 94 | 1010.3 |
| 20260507033312 | 44 | 0 | 0.0 | 0.0 | 0.00 | 0.09 | 0.01 | 94 | 1010.2 |
| 20260507030312 | 44 | 0 | 0.0 | 0.0 | 0.00 | 0.09 | 0.01 | 94 | 1010.1 |
| 20260507023312 | 44 | 292 | 0.0 | 2.0 | 0.00 | 0.09 | 0.01 | 94 | 1010.1 |
| 20260507013313 | 45 | 0 | 0.0 | 0.0 | 0.00 | 0.09 | 0.01 | 95 | 1010.2 |
| 20260507010312 | 45 | 0 | 0.0 | 0.0 | 0.00 | 0.09 | 0.01 | 95 | 1010.2 |
| 20260507003312 | 45 | 0 | 0.0 | 0.0 | 0.00 | 0.09 | 0.01 | 95 | 1010.2 |
| 20260507000314 | 45 | 292 | 1.0 | 4.0 | 0.00 | 0.09 | 0.01 | 95 | 1010.6 |
| 20260506233312 | 45 | 292 | 2.0 | 4.0 | 0.00 | 0.09 | 0.01 | 96 | 1010.7 |
| 20260506220312 | 46 | 292 | 2.0 | 2.0 | 0.00 | 0.09 | 0.09 | 95 | 1010.3 |
| 20260506203311 | 47 | 315 | 1.0 | 3.0 | 0.01 | 0.09 | 0.09 | 95 | 1009.7 |
| 20260506200311 | 48 | 292 | 2.0 | 4.0 | 0.01 | 0.09 | 0.09 | 95 | 1009.8 |
| 20260506193311 | 49 | 0 | 0.0 | 0.0 | 0.02 | 0.08 | 0.08 | 96 | 1009.9 |
| 20260506190311 | 49 | 0 | 0.0 | 0.0 | 0.02 | 0.08 | 0.08 | 95 | 1009.2 |
| 20260506183311 | 50 | 0 | 0.0 | 0.0 | 0.02 | 0.06 | 0.06 | 95 | 1008.4 |
| 20260506180311 | 50 | 0 | 0.0 | 0.0 | 0.01 | 0.06 | 0.06 | 95 | 1008.6 |
| 20260506173311 | 50 | 0 | 0.0 | 0.0 | 0.00 | 0.05 | 0.05 | 94 | 1007.8 |
| 20260506170310 | 50 | 0 | 0.0 | 0.0 | 0.01 | 0.05 | 0.05 | 94 | 1007.6 |
| 20260506160310 | 51 | 0 | 0.0 | 0.0 | 0.01 | 0.04 | 0.04 | 94 | 1007.9 |
| 20260506153310 | 51 | 0 | 0.0 | 0.0 | 0.02 | 0.04 | 0.04 | 93 | 1008.0 |
| 20260506150311 | 52 | 0 | 0.0 | 0.0 | 0.01 | 0.03 | 0.03 | 92 | 1008.4 |
| 20260506140310 | 53 | 0 | 0.0 | 0.0 | 0.01 | 0.02 | 0.02 | 88 | 1008.6 |
| 20260506133310 | 54 | 0 | 0.0 | 0.0 | 0.00 | 0.02 | 0.02 | 85 | 1009.2 |
| 20260506130310 | 54 | 0 | 0.0 | 0.0 | 0.01 | 0.02 | 0.02 | 85 | 1009.2 |
| 20260506123310 | 54 | 0 | 0.0 | 0.0 | 0.01 | 0.02 | 0.02 | 84 | 1009.8 |
| 20260506120309 | 56 | 270 | 0.0 | 2.0 | 0.00 | 0.01 | 0.01 | 78 | 1009.8 |
| 20260506113309 | 56 | 0 | 0.0 | 0.0 | 0.00 | 0.01 | 0.01 | 77 | 1010.1 |
| 20260506110310 | 56 | 202 | 0.0 | 4.0 | 0.00 | 0.01 | 0.01 | 77 | 1010.0 |
| 20260506103309 | 56 | 157 | 3.0 | 6.0 | 0.00 | 0.01 | 0.01 | 74 | 1010.2 |
| 20260506100309 | 55 | 202 | 1.0 | 4.0 | 0.00 | 0.01 | 0.01 | 73 | 1010.5 |
| 20260506093309 | 54 | 90 | 0.0 | 2.0 | 0.00 | 0.01 | 0.01 | 78 | 1010.6 |
| 20260506090310 | 53 | 0 | 0.0 | 0.0 | 0.01 | 0.01 | 0.01 | 78 | 1010.6 |
| 20260506083309 | 53 | 180 | 0.0 | 2.0 | 0.01 | 0.01 | 0.01 | 79 | 1010.6 |
| 20260506080309 | 53 | 0 | 0.0 | 0.0 | 0.00 | 0.00 | 0.00 | 76 | 1010.2 |
| 20260506073309 | 53 | 135 | 1.0 | 3.0 | 0.00 | 0.00 | 0.00 | 74 | 1010.4 |
| 20260506070308 | 52 | 157 | 1.0 | 3.0 | 0.00 | 0.00 | 0.00 | 75 | 1010.0 |
| 20260506050313 | 48 | 0 | 0.0 | 0.0 | 0.00 | 0.00 | 0.00 | 79 | 1009.9 |